Regional Weather Roundup
Issued by NWS

Home | Current Version | Previous Version | Graphics & Text | Print | Product List | Glossary On
Versions: 1 2 3 4 5 6 7 8 9 10 11 12 13 14 15 16 17 18 19 20 21 22 23 24 25 26 27 28 29 30 31 32 33 34 35 36 37 38 39 40 41 42 43 44 45 46 47 48 49 50
000
ASUS43 KLOT 110510
RWRIL

ILLINOIS REGIONAL WEATHER ROUNDUP
NATIONAL WEATHER SERVICE CHICAGO/ROMEOVILLE IL
1200 AM CDT FRI JUL 11 2014

NOTE: "FAIR" INDICATES FEW OR NO CLOUDS BELOW 12,000 FEET WITH NO
SIGNIFICANT WEATHER AND/OR OBSTRUCTIONS TO VISIBILITY.

* THESE STATIONS ARE NOT UNDER NWS QUALITY CONTROL. THEY ALSO MAY NOT
  REPORT WEATHER SUCH AS PRECIPITATION OR FOG.

ILZ001-002-007-009-015-016-024-110600-
NORTHWEST ILLINOIS

CITY           SKY/WX    TMP DP  RH WIND       PRES   REMARKS
MOLINE         CLOUDY    67  59  75 S7        30.14R
STERLING*      CLOUDY    64  57  77 S5        30.16S
SAVANNA*       MOCLDY    66  59  78 S3        30.15R
$$

ILZ003-004-008-010-011-017-018-110600-
NORTH CENTRAL ILLINOIS

CITY           SKY/WX    TMP DP  RH WIND       PRES   REMARKS
ROCKFORD       MOCLDY    65  56  72 SE8       30.19R
FREEPORT*      MOCLDY    61  56  85 S7        30.18S
ROCHELLE*      PTCLDY    60  56  88 SE5       30.18R
DE KALB*       PTCLDY    62  52  70 SE5       30.19R
PERU*          PTCLDY    67  57  68 S7        30.17S
$$

ILZ005-006-012>014-019>023-110600-
NORTHEAST ILLINOIS

CITY           SKY/WX    TMP DP  RH WIND       PRES   REMARKS
CHICAGO-OHARE  PTCLDY    65  49  56 SE5       30.17S
CHICAGO-MIDWAY PTCLDY    69  54  58 E5        30.17S
AURORA         PTCLDY    63  52  67 SE3       30.17S
LANSING*       CLEAR     58  51  75 CALM      30.18F
JOLIET*        CLEAR     61  52  72 CALM      30.18S
WAUKEGAN       CLEAR     58  53  84 CALM      30.17S
DUPAGE AIRPORT CLEAR     62  51  67 CALM      30.17S
KANKAKEE*      CLEAR     60  55  82 CALM      30.19R
WHEELING       CLEAR     64  54  69 CALM      30.18F
MORRIS*        CLEAR     62  55  79 SE5       30.17S
ROMEOVILLE*    CLEAR     62  52  69 SE6       30.17S
NORTHERLY ISL    N/A     65  59  81 CALM        N/A
$$

LMZ740>746-110600-
SOUTHERN LAKE MICHIGAN

STATION/POSITION SKY/WX   TEMP    WIND        PRES    VSBY  WAVE
                          AIR SEA DIR/SP/G                  HT/PER
                          (F)     (DEG/KT/KT) (MB)    (MI)  (FT/S)
SOUTHERN BUOY              61 60  140/  4/  4 1022.1F         0
WAUKEGAN HARBOR            63     200/  4/  4 1022.7F
HARRISON CRIB              68     130/  7/  8   N/A
BURNHAM HARBOR             65      CALM  /  2   N/A
CALUMET HARBOR             68      80/  5/  7 1022.4F
MICHIGAN CITY              64      90/  5/  6   N/A
$$

ILZ025>027-034>036-040-047-049-050-058-095>099-110600-
WEST-CENTRAL ILLINOIS

CITY           SKY/WX    TMP DP  RH WIND       PRES   REMARKS
QUINCY         MOCLDY    67  58  72 SE8       30.14S
GALESBURG*     MOCLDY    66  60  81 SE6       30.15S
MACOMB*        PTCLDY    61  57  88 SE7       30.18R
JACKSONVILLE*  PTCLDY    63  57  83 SE3       30.17S
PITTSFIELD*    PTCLDY    65  57  75 E3        30.16S
$$

ILZ028>032-037-038-041>044-048-051>054-059>061-110600-
CENTRAL ILLINOIS

CITY           SKY/WX    TMP DP  RH WIND       PRES   REMARKS
PONTIAC        CLEAR     63  61  94 SE3       30.18R
BLOOMINGTON    CLEAR     63  54  72 SE5       30.20R
DECATUR        CLEAR     60  56  86 E5        30.18R
PEORIA         MOCLDY    69  57  65 SE3       30.17R
LACON*         MOCLDY    64  57  79 CALM      30.16R
LINCOLN*       PTCLDY    62  58  86 CALM      30.16R
SPRINGFIELD    CLEAR     61  57  87 E3        30.17R
TAYLORVILLE    CLEAR     63  55  77 E5        30.17R
$$

ILZ033-039-045-046-055>057-062-063-110600-
EAST-CENTRAL ILLINOIS

CITY           SKY/WX    TMP DP  RH WIND       PRES   REMARKS
CHAMPAIGN      CLEAR     61  56  83 E3        30.19R
RANTOUL*       CLEAR     65  56  74 CALM      30.19R
MATTOON          N/A     64  56  75 CALM      30.17R
PARIS*         CLEAR     57  56  95 CALM      30.19R
$$

ILZ079-100>102-110600-
SOUTHWEST ILLINOIS

CITY           SKY/WX    TMP DP  RH WIND       PRES   REMARKS
ALTON          CLEAR     66  60  80 E5        30.16R
BELLEVILLE     CLEAR     64  62  91 VRB1      30.14S
CAHOKIA*       CLEAR     65  61  87 CALM      30.15R
SPARTA*        CLEAR     64  59  82 E5        30.15S
$$

ILZ064>066-069>071-074>076-080>082-084>086-088>090-092>094-110600-
SOUTH-CENTRAL ILLINOIS

CITY           SKY/WX    TMP DP  RH WIND       PRES   REMARKS
CARBONDALE     CLEAR     65  62  90 CALM      30.14S
CAIRO*         CLEAR     70  65  84 CALM      30.13S
MARION         CLEAR     64  64 100 CALM      30.15S
MT. VERNON     CLEAR     63  57  82 CALM      30.16S
CENTRALIA*     CLEAR     62  59  91 CALM      30.16R
SALEM*         CLEAR     69  61  75 CALM      30.16S
METROPOLIS*    CLEAR     67  64  91 CALM      30.13R
$$

ILZ067-068-072-073-078-083-087-091-110600-
SOUTHEAST ILLINOIS

CITY           SKY/WX    TMP DP  RH WIND       PRES   REMARKS
FLORA*         CLEAR     63  58  83 CALM      30.17R
HARRISBURG*    CLEAR     65  64  99 CALM      30.15S
ROBINSON*      CLEAR     62  61  95 CALM      30.18R
CARMI*         CLEAR     63  62  97 CALM      30.15R
$$

ABBREVIATIONS USED IN REMARKS
   TC - TEMPERATURE IN CELSIUS
  WCI - WIND CHILL INDEX
   HX - HEAT INDEX
  VSB - VISIBILITY
$$



USA.gov is the U.S. government's official web portal to all federal, state and local government web resources and services.